Regional Weather Roundup
Issued by NWS Charleston, SC

Current Version | Previous Version | Graphics & Text | Print | Product List | Glossary On
Versions: 1 2 3 4 5 6 7 8 9 10 11 12 13 14 15 16 17 18 19 20 21 22 23 24 25 26 27 28 29 30 31 32 33 34 35 36 37 38 39 40 41 42 43 44 45 46 47 48 49 50
000
ASUS42 KCHS 260612
RWRCHS

REGIONAL WEATHER ROUNDUP
NATIONAL WEATHER SERVICE CHARLESTON SC
200 AM EDT TUE MAY 26 2015

NOTE: "FAIR" INDICATES FEW OR NO CLOUDS BELOW 12,000 FEET WITH NO
SIGNIFICANT WEATHER AND/OR OBSTRUCTIONS TO VISIBILITY.

NOT ALL STATIONS ARE QUALITY CONTROLLED BY THE NATIONAL
WEATHER SERVICE. USE DATA WITH CAUTION...ESPECIALLY
DEWPOINT OBSERVATIONS.

SCZ027-030-031-034>040-042>050-260700-
...SOUTHEAST SOUTH CAROLINA...

CITY           SKY/WX    TMP DP  RH WIND       PRES   REMARKS
N CHARLESTON   PTCLDY    72  69  90 E3        30.24F
6HR MIN TEMP:  71; 6HR MAX TEMP:  76;

WATERFRONT PAR   N/A     75  72  90 E9        30.21F
MOUNT PLEASANT LGT RAIN  72  72 100 CALM      30.24F
JOHNS ISLAND   PTCLDY    73  72  94 E5        30.24F
PINOPOLIS        N/A     72  68  88 VRB2      30.18R
MONCKS CORNER  FAIR      70  66  88 CALM      30.24F
SUMMERVILLE    FAIR      66  66 100 CALM      30.25F
BEAUFORT MCAS  PTCLDY    74  71  91 E6        30.23F
6HR MIN TEMP:  73; 6HR MAX TEMP:  77;

BEAUFORT ARPT  FAIR      72  72 100 CALM      30.22F
HILTON HEAD IS PTCLDY    75  73  94 CALM      30.23F
WALTERBORO     PTCLDY    64  63  94 CALM      30.24F
ALLENDALE        N/A     70  68  94 CALM      30.23F

...SOUTHERN MIDLANDS AND PEE DEE...

CITY           SKY/WX    TMP DP  RH WIND       PRES   REMARKS
GEORGETOWN     NOT AVBL
KINGSTREE      NOT AVBL
ORANGEBURG     MOCLDY    68  65  90 E3        30.24F
6HR MIN TEMP:  68; 6HR MAX TEMP:  78;

BARNWELL       FAIR      72  70  94 E5        30.24F
AIKEN          FAIR      70  63  78 SE8       30.28S
MANNING        FAIR      63  54  72 CALM      30.25F
COLUMBIA       MOCLDY    72  66  81 SE5       30.24F
6HR MIN TEMP:  72; 6HR MAX TEMP:  80;

SUMTER         MOCLDY    69  66  88 SE2       30.24
6HR MIN TEMP:  69; 6HR MAX TEMP:  79;

FLORENCE       CLEAR     67  64  90 CALM      30.26F
6HR MIN TEMP:  66; 6HR MAX TEMP:  78;

MYRTLE BEACH   CLEAR     73  66  78 SE12      30.28S
N MYRTLE BEACH CLEAR     74  66  76 SE7       30.26F
6HR MIN TEMP:  74; 6HR MAX TEMP:  76;


$$

GAZ063-065-086>088-099>101-113>116-118-119-134>141-150-260700-
...SOUTHEAST GEORGIA...

CITY           SKY/WX    TMP DP  RH WIND       PRES   REMARKS
SAVANNAH ARPT  PTCLDY    73  70  90 E6        30.22F
6HR MIN TEMP:  73; 6HR MAX TEMP:  77;

HUNTER AAF     PTCLDY    74  73  98 E3        30.20F
6HR MIN TEMP:  74; 6HR MAX TEMP:  77;

FORT STEWART   NOT AVBL
STATESBORO     PTCLDY    70  50  49 CALM      30.22F
SYLVANIA       PTCLDY    70  70 100 CALM      30.24F
CLAXTON        FAIR      68  68 100 CALM      30.22F FOG

...CSRA...CENTRAL AND FAR SOUTHEAST GEORGIA...

CITY           SKY/WX    TMP DP  RH WIND       PRES   REMARKS
THOMSON        MOCLDY    74  70  89 SE3       30.27F
AUGUSTA-BUSH   MOCLDY    70  68  93 SE7       30.23F
6HR MIN TEMP:  70; 6HR MAX TEMP:  80;

AUGUSTA-DANIEL CLOUDY    73  68  84 SE6       30.24F
SWAINSBORO     FAIR      73  73 100 SE7       30.23S
VIDALIA        MOCLDY    72  70  94 E3        30.22F
EASTMAN        FAIR      72  72 100 SE3       30.23S
HAZLEHURST     MOCLDY    74  73  97 SE5       30.20S
ALMA           MOCLDY    72  70  93 E6        30.20F
6HR MIN TEMP:  72; 6HR MAX TEMP:  80;

WAYCROSS       MOCLDY    73  73  97 E3        30.20F
JESUP          FAIR      73  72  94 SE3       30.21F
BAXLEY         CLOUDY    73  72  94 SE3       30.20F
BRUNSWICK      PTCLDY    75  72  88 E3        30.21S
SAINT SIMONS   NOT AVBL

$$

SCZ027-028-034-036>038-045-046-048>050-GAZ119-141-260700-
...LAKE AND SUPPLEMENTAL COASTAL OBSERVATIONS...

STATION/POSITION TIME  TEMP    WIND        PRES    WAVE   SWELL
                       AIR SEA DIR/SP/G            HT/PER HT/PER/DIR
                 (UTC) (F)     (DEG/KT/KT) (MB)    (FT/S) (FT/S/D)
UPR LAKE MARION  NOT AVBL
WINYAH BAY       NOT AVBL
LAKE MURRAY      0500   74     140/ 11/ 15 1023.7F
ACE BASIN NERRS  NOT AVBL
FORT PULASKI     0500   76 78  100/  9/ 13 1024.2F
SAPELO ISLAND    0500   75     100/  6     1023.0F

$$

ANZ835-935-AMZ111-154-330-350-352-354-370-450-454-472-260700-
...C-MAN AND BUOY OBSERVATIONS...

STATION/POSITION TIME  TEMP    WIND        PRES    WAVE   SWELL
                       AIR SEA DIR/SP/G            HT/PER HT/PER/DIR
                 (UTC) (F)     (DEG/KT/KT) (MB)    (FT/S) (FT/S/D)
BUOY 41004       0550   77 75  150/ 10/ 12 1023.4F   3/ 7   3/ 7
BUOY 41008       0550   76 75  110/  8/ 10 1022.9F   3/ 7   3/ 90/ 7
FOLLY BEACH CMAN 0600   75     100/ 11/ 12 1023.9F
CAPERS NEARSHORE 0508   75     110/ 10/ 14 1024.3F
FRIPP NEARSHORE  0500   75     110/ 10/ 12 1023.3F


STATION/POSITION TIME  TEMP    WIND        PRES    WAVE   SWELL
                       AIR SEA DIR/SP/G            HT/PER HT/PER/DIR
                 (UTC) (F)     (DEG/KT/KT) (MB)    (FT/S) (FT/S/D)
5E ST. MARYS GA  0521      78                N/A     3/ 7
FRYING PAN BUOY  0550   76 74  130/ 12/ 14 1025.4F   3/ 6   3/140/ 6
BUOY 41025       0550   74 76  160/ 16/ 17 1025.8F   3/ 4   2/ 90/ 7
CAPE LOOKOUT NC  0600   73     150/ 12/ 14 1025.4F
BUOY 41002       0550   74 74  130/ 12/ 14 1026.4F   4/ 7   2/100/ 7
BUOY 41010       0520   79 81  110/ 14/ 16 1023.7F
ST AUGUSTINE FL  0600   78 79  140/ 12/ 14 1023.2F


$$


USA.gov is the U.S. government's official web portal to all federal, state and local government web resources and services.